{"data":{"norad_id":53272,"epoch":"2026-09-19T22:17:38.670720Z","epoch_age_seconds":124699,"freshness":"FRESH","line1":"1 53272U 22086AG  26262.92891980 -.00000277  00000+0  29345-5 0  9995","line2":"2 53272  53.1603  16.0393 0001019  80.6015 279.5102 15.34397355230749","mean_motion":15.34397355,"eccentricity":0.0001019,"inclination_deg":53.1603,"raan_deg":16.0393,"arg_perigee_deg":80.6015,"mean_anomaly_deg":279.5102,"bstar":2.9345e-6,"rev_number":23074,"period_min":93.847919856457,"perigee_km":462.01401929424,"apogee_km":463.40818413737,"semimajor_km":6840.8481017158,"source":"CELESTRAK","updated_at":"2026-09-20T09:00:40.217924Z"}}